[Date Prev][Date Next][Thread Prev][Thread Next] - [Date Index][Thread Index][Author Index]

2 Line ISS Keps 5-30



ISS
1 25544U 98067A   05149.95360016  .00012676  00000-0  98467-4 0  5782
2 25544 051.6457 354.3279 0005485 179.3713 327.5682 15.72199594372812
----
Via the sarex mailing list at AMSAT.ORG courtesy of AMSAT-NA.
To unsubscribe, send "unsubscribe sarex" to Majordomo@amsat.org



AMSAT Top AMSAT Home